User: anonymous   Login
Location: Warszawa
(52.2500°N, 21.0000°E)
Time: 20:07:32
(UTC+01:00)
Language:

A-11 Canister half - Orbit

View from above orbital plane
View from above orbital plane
View from above satellite
View from above satellite

Ground track
Ground track

The orbit data is extracted from the following two-line orbital elements,

1 00051U 60009C   23030.07839248 -.00000059  00000-0  26097-3 0  9992
2 00051  47.2110 267.8523 0107466 126.0230 235.0573 12.18291904780719
Epoch (UTC): 30 January 2023 01:52:53
Eccentricity: 0.0107466
inclination: 47.2110°
perigee height: 1514 km
apogee height: 1686 km
right ascension of ascending node: 267.8523°
argument of perigee: 126.0230°
revolutions per day: 12.18291904
mean anomaly at epoch: 235.0573°
orbit number at epoch: 78071

The dashed part of the orbit path shows where the satellite is in the earth's shadow,  

DLR